This is the latest recevied weather packets stored in our database for station/object W4ZHA. If no packets are shown the sender has not sent any weather packets the latest 1 day(s).
| Time | Temp. | Humidity | Pressure | Rain* | Wind** | Luminosity | Snow |
|---|---|---|---|---|---|---|---|
| 1777991131 | 18.89° C | 60% | 1015.5 hPa | 0 mm | 0 m/s | 82 W/m² | - |
| 1777990828 | 18.89° C | 61% | 1015.5 hPa | 0 mm | 0 m/s | 90 W/m² | - |
| 1777990526 | 19.44° C | 62% | 1015.5 hPa | 0 mm | 0 m/s | 88 W/m² | - |
| 1777990222 | 19.44° C | 63% | 1015.5 hPa | 0 mm | 0 m/s | 85 W/m² | - |
| 1777989919 | 17.78° C | 62% | 1015.5 hPa | 0 mm | 0 m/s | 93 W/m² | - |
| 1777989616 | 17.78° C | 63% | 1015.1 hPa | 0 mm | 0 m/s | 99 W/m² | - |
| 1777989312 | 17.78° C | 63% | 1015.5 hPa | 0 mm | 0 m/s | 99 W/m² | - |
| 1777989009 | 17.78° C | 63% | 1015.5 hPa | 0 mm | 0 m/s | 99 W/m² | - |
| 1777988705 | 17.78° C | 64% | 1015.5 hPa | 0 mm | 0 m/s | 101 W/m² | - |
| 1777988401 | 17.22° C | 64% | 1015.5 hPa | 0 mm | 0 m/s | 102 W/m² | - |
| 1777988099 | 17.78° C | 64% | 1015.5 hPa | 0 mm | 0 m/s | 98 W/m² | - |
| 1777987794 | 17.22° C | 64% | 1015.5 hPa | 0 mm | 0 m/s | 104 W/m² | - |
| 1777987491 | 17.78° C | 65% | 1015.5 hPa | 0 mm | 0 m/s | 107 W/m² | - |
| 1777987189 | 17.22° C | 65% | 1015.5 hPa | 0 mm | 0 m/s | 114 W/m² | - |
| 1777986885 | 17.22° C | 65% | 1015.5 hPa | 0 mm | 0 m/s | 170 W/m² | - |
| 1777986583 | 16.67° C | 68% | 1015.8 hPa | 0 mm | 0 m/s | 109 W/m² | - |
| 1777986281 | 16.67° C | 68% | 1015.8 hPa | 0 mm | 0 m/s | 66 W/m² | - |
| 1777985978 | 16.11° C | 69% | 1015.5 hPa | 0 mm | 0 m/s | 58 W/m² | - |
| 1777985676 | 16.11° C | 68% | 1015.5 hPa | 0 mm | 0 m/s | 65 W/m² | - |
| 1777985372 | 15.56° C | 70% | 1015.5 hPa | 0 mm | 0 m/s | 71 W/m² | - |
| 1777985069 | 15.56° C | 71% | 1015.5 hPa | 0 mm | 0 m/s | 57 W/m² | - |
| 1777984765 | 15.56° C | 71% | 1015.5 hPa | 0 mm | 0 m/s | 55 W/m² | - |
| 1777984462 | 15° C | 71% | 1015.1 hPa | 0 mm | 0 m/s | 58 W/m² | - |
| 1777984158 | 15° C | 72% | 1015.1 hPa | 0 mm | 0 m/s | 56 W/m² | - |
| 1777983855 | 14.44° C | 72% | 1015.1 hPa | 0 mm | 0 m/s | 54 W/m² | - |
* Rain latest hour (hover to see other rain measurements)
** Current wind speed in m/s (hover to see current wind gust speed)